TimeCST,TemperatureF,Dew PointF,Humidity,Sea Level PressureIn,VisibilityMPH,Wind Direction,Wind SpeedMPH,Gust SpeedMPH,PrecipitationIn,Events,Conditions,WindDirDegrees,DateUTC
12:07 AM,69.8,68.0,94,29.94,10.0,SSW,12.7,-,N/A,,Mostly Cloudy,200,2013-01-16 06:07:00
12:56 AM,69.1,69.1,100,29.95,10.0,SSW,9.2,-,0.00,Rain,Light Rain,200,2013-01-16 06:56:00
1:13 AM,69.8,69.8,100,29.95,3.0,SW,13.8,23.0,0.03,Rain,Heavy Rain,220,2013-01-16 07:13:00
1:28 AM,68.0,66.2,94,29.95,4.0,SSW,11.5,-,0.06,Rain,Light Rain,210,2013-01-16 07:28:00
1:56 AM,69.1,68.0,96,29.95,7.0,SSW,11.5,20.7,0.08,Rain,Light Rain,200,2013-01-16 07:56:00
2:35 AM,69.8,69.8,100,29.94,10.0,SSW,9.2,-,0.00,,Overcast,210,2013-01-16 08:35:00
2:46 AM,69.8,69.8,100,29.94,10.0,SSW,11.5,-,0.00,,Overcast,200,2013-01-16 08:46:00
2:49 AM,69.8,69.8,100,29.94,10.0,South,12.7,-,0.00,,Overcast,190,2013-01-16 08:49:00
2:56 AM,70.0,69.1,97,29.95,10.0,South,11.5,-,0.00,,Overcast,190,2013-01-16 08:56:00
3:05 AM,69.8,69.8,100,29.94,9.0,South,10.4,-,N/A,,Overcast,190,2013-01-16 09:05:00
3:19 AM,69.8,69.8,100,29.94,9.0,South,9.2,-,N/A,,Overcast,190,2013-01-16 09:19:00
3:41 AM,69.8,69.8,100,29.94,8.0,SSW,12.7,-,N/A,,Overcast,200,2013-01-16 09:41:00
3:53 AM,69.8,69.8,100,29.94,7.0,South,11.5,-,N/A,,Overcast,190,2013-01-16 09:53:00
3:56 AM,69.1,69.1,100,29.95,7.0,South,11.5,-,N/A,,Overcast,190,2013-01-16 09:56:00
4:03 AM,69.8,69.8,100,29.94,7.0,South,10.4,-,N/A,,Overcast,190,2013-01-16 10:03:00
4:05 AM,69.8,69.8,100,29.94,7.0,South,10.4,-,N/A,,Overcast,190,2013-01-16 10:05:00
4:20 AM,69.8,69.8,100,29.93,6.0,South,9.2,-,N/A,,Overcast,190,2013-01-16 10:20:00
4:28 AM,69.8,69.8,100,29.93,6.0,South,9.2,-,N/A,,Overcast,190,2013-01-16 10:28:00
4:56 AM,69.1,69.1,100,29.94,5.0,South,11.5,-,N/A,,Overcast,180,2013-01-16 10:56:00
5:56 AM,69.1,69.1,100,29.94,6.0,South,12.7,-,N/A,,Overcast,190,2013-01-16 11:56:00
6:56 AM,69.1,69.1,100,29.96,3.0,SSW,8.1,-,N/A,,Overcast,210,2013-01-16 12:56:00
7:17 AM,62.6,62.6,100,29.97,3.0,North,6.9,-,0.00,Rain,Light Rain,350,2013-01-16 13:17:00
7:25 AM,62.6,62.6,100,29.97,1.5,North,9.2,-,0.02,Rain,Rain,350,2013-01-16 13:25:00
7:44 AM,60.8,60.8,100,29.98,7.0,NNW,8.1,-,0.02,,Mostly Cloudy,330,2013-01-16 13:44:00
7:54 AM,60.8,60.8,100,29.98,1.0,NNW,8.1,-,0.02,,Overcast,330,2013-01-16 13:54:00
7:56 AM,60.1,60.1,100,29.99,1.0,NNW,9.2,-,0.02,,Overcast,330,2013-01-16 13:56:00
8:03 AM,59.0,59.0,100,29.98,1.0,NNW,9.2,-,N/A,,Overcast,330,2013-01-16 14:03:00
8:19 AM,59.0,59.0,100,29.99,0.8,NNW,9.2,-,N/A,,Overcast,330,2013-01-16 14:19:00
8:31 AM,57.2,57.2,100,29.99,0.8,NNW,8.1,-,0.00,Rain,Rain,330,2013-01-16 14:31:00
8:43 AM,57.2,57.2,100,29.99,1.0,NNW,10.4,-,N/A,Rain,Rain,340,2013-01-16 14:43:00
8:56 AM,55.9,55.9,100,30.01,0.5,NNW,9.2,-,0.63,Fog-Rain,Heavy Rain,340,2013-01-16 14:56:00
9:03 AM,55.4,55.4,100,30.00,1.0,NNW,8.1,-,0.09,Rain,Heavy Rain,340,2013-01-16 15:03:00
9:08 AM,55.4,55.4,100,30.00,2.0,North,6.9,-,0.10,Rain,Rain,350,2013-01-16 15:08:00
9:14 AM,55.4,55.4,100,30.00,4.0,NNW,8.1,-,0.10,Rain,Light Rain,330,2013-01-16 15:14:00
9:32 AM,57.2,57.2,100,30.00,7.0,North,9.2,-,0.10,,Overcast,350,2013-01-16 15:32:00
9:56 AM,59.0,57.9,96,30.00,10.0,North,5.8,-,0.10,,Overcast,350,2013-01-16 15:56:00
10:35 AM,55.4,55.4,100,29.99,10.0,North,6.9,-,0.00,Rain,Light Rain,350,2013-01-16 16:35:00
10:51 AM,57.2,55.4,94,29.97,10.0,North,6.9,-,0.00,,Overcast,350,2013-01-16 16:51:00
10:56 AM,57.0,57.0,100,29.98,10.0,North,5.8,-,0.00,,Overcast,350,2013-01-16 16:56:00
10:58 AM,57.2,57.2,100,29.97,4.0,North,5.8,-,0.00,Rain,Light Rain,350,2013-01-16 16:58:00
11:24 AM,55.4,55.4,100,29.96,2.5,NNW,10.4,-,0.00,Rain,Light Rain,340,2013-01-16 17:24:00
11:37 AM,55.4,55.4,100,29.97,1.5,NNW,9.2,-,0.00,Rain,Rain,340,2013-01-16 17:37:00
11:45 AM,55.4,55.4,100,29.96,3.0,NNW,10.4,-,N/A,Rain,Rain,340,2013-01-16 17:45:00
11:56 AM,55.0,55.0,100,29.96,4.0,North,8.1,-,0.17,Rain,Light Rain,360,2013-01-16 17:56:00
12:05 PM,55.4,55.4,100,29.95,2.0,North,9.2,-,N/A,Rain,Heavy Rain,360,2013-01-16 18:05:00
12:21 PM,55.4,55.4,100,29.96,1.0,North,5.8,-,N/A,Rain,Heavy Rain,360,2013-01-16 18:21:00
12:30 PM,55.4,55.4,100,29.96,0.8,NNW,5.8,-,N/A,Rain,Heavy Rain,330,2013-01-16 18:30:00
12:43 PM,55.4,55.4,100,29.96,1.2,NNW,4.6,-,N/A,Rain,Heavy Rain,330,2013-01-16 18:43:00
12:56 PM,55.0,55.0,100,29.96,1.0,NNW,5.8,-,0.24,Rain,Rain,330,2013-01-16 18:56:00
1:29 PM,55.4,55.4,100,29.95,1.8,North,5.8,-,0.02,Rain,Light Rain,350,2013-01-16 19:29:00
1:37 PM,55.4,55.4,100,29.95,2.0,NNW,4.6,-,0.02,Rain,Rain,340,2013-01-16 19:37:00
1:40 PM,55.4,55.4,100,29.95,1.2,NNW,8.1,-,0.02,Rain,Light Rain,340,2013-01-16 19:40:00
1:56 PM,55.0,55.0,100,29.97,1.2,NNW,8.1,-,0.12,Rain,Rain,330,2013-01-16 19:56:00
2:12 PM,55.4,55.4,100,29.96,3.0,NNW,5.8,-,0.00,Rain,Light Rain,330,2013-01-16 20:12:00
2:56 PM,54.0,54.0,100,29.96,5.0,NNW,12.7,17.3,0.00,Rain,Light Rain,330,2013-01-16 20:56:00
3:40 PM,53.6,53.6,100,29.96,10.0,NNW,10.4,-,0.00,,Overcast,330,2013-01-16 21:40:00
3:56 PM,52.0,52.0,100,29.96,10.0,NNW,12.7,-,0.00,,Overcast,330,2013-01-16 21:56:00
4:34 PM,51.8,51.8,100,29.99,10.0,NNW,6.9,-,0.00,Rain,Light Rain,340,2013-01-16 22:34:00
4:56 PM,50.0,50.0,100,30.01,10.0,NW,5.8,-,0.00,,Overcast,320,2013-01-16 22:56:00
5:56 PM,50.0,48.9,96,30.01,10.0,North,6.9,-,N/A,,Overcast,350,2013-01-16 23:56:00
6:19 PM,48.2,48.2,100,29.99,10.0,North,9.2,-,0.00,Rain,Light Rain,350,2013-01-17 00:19:00
6:56 PM,48.9,48.9,100,30.01,10.0,North,6.9,-,0.00,Rain,Light Rain,360,2013-01-17 00:56:00
7:56 PM,48.9,48.9,100,30.01,10.0,North,4.6,-,0.00,Rain,Light Rain,350,2013-01-17 01:56:00
8:13 PM,48.2,48.2,100,30.01,10.0,NW,5.8,-,0.00,,Overcast,320,2013-01-17 02:13:00
8:56 PM,48.9,48.9,100,30.02,10.0,Calm,Calm,-,0.00,,Overcast,0,2013-01-17 02:56:00
9:56 PM,48.0,46.9,96,30.02,10.0,WNW,6.9,-,0.00,Rain,Light Rain,300,2013-01-17 03:56:00
10:56 PM,46.0,46.0,100,30.04,4.0,WNW,4.6,-,0.00,,Overcast,290,2013-01-17 04:56:00
11:56 PM,45.0,45.0,100,30.03,10.0,NW,6.9,-,N/A,,Overcast,310,2013-01-17 05:56:00